NOAA 16 DEB

Satellite information

Favourite Embed

Satellite Type and Status

DEBRISIN ORBIT

Key statistics

Satellite NOAA 16 DEB at a glance.

Uptime

9215

Days in orbit

Revolutions

≈ 14.4

Per day

Orbit

SSO

Sun Synchronous Orbit

Inclination

98.9

Latest

Satellite identification and parameters

Extended collection of information and parameters for NOAA 16 DEB.

Object identification

Identified? True

Debris? True

Object name: NOAA 16 DEB

International designator: 2000-055Q

Object number (NORAD): 41057

Object ID (CCSDS): 41057

Country: UNITED STATES OF AMERICA (US)

Current information (Y/N): Y

RCS size: SMALL

Orbital parameters

Period: 99.903 minutes

Inclination: 98.9351 deg

SMA: 7132.032 km

Apoapsis: 767.286 km

Periapsis: 740.507 km

RAAN: 136.5073 deg

Eccentricy: 0.00187741

Argument of periapsis: 13.8166 deg

Mean anomaly: 346.3532 deg

Mean motion: 14.41394533 rev/day

Mean motion (dot): 0.00010038 rev/day2

B* drag term: 0.0031020141 1/REarth

Two-line elements (TLE)

Creation date: Dec. 12, 2025, 10:14 a.m.

Reference frame: TEME

Reference center: EARTH

Epoch: Dec. 11, 2025, 10:04 p.m. UTC

TLE line 0: 0 NOAA 16 DEB

TLE line 1: 1 41057U 00055Q 25345.91981247 .00010038 00000-0 31020-2 0 9997

TLE line 2: 2 41057 98.9351 136.5073 0018774 13.8166 346.3532 14.41394533521563

Live tracking on map

Real-time ground track for satellite NOAA 16 DEB.

In-orbit conjunctions

A list of the most updated potential collisions computed for object NOAA 16 DEB.

Target Orbit TCA Probability of collision Miss distance Type
CZ-6A DEB LEO 2025-10-30 05:07:20 0.0001867295 83.0 (m) DEBRIS
SL-14 DEB LEO 2025-04-21 23:34:23 0.000103669 276.0 (m) DEBRIS
CZ-6A DEB LEO 2025-02-20 03:25:48 0.0002292506 621.0 (m) DEBRIS
COSMOS 1125 LEO 2025-02-10 22:58:19 0.0004047858 55.0 (m) PAYLOAD
COSMOS 1275 DEB LEO 2024-08-17 02:36:25 0.0001077965 71.0 (m) DEBRIS

Associated space launch

The NOAA K, L and M POES satellites begin the fifth generation of improved environmental monitoring in support of NOAA missions. The instrument payload has significant improvements and additions/deletions. The instrument changes have effected the spacecraft subsystems and data formats.

NOAA 16 DEB was lifted into orbit during the mission ‘Titan II SLV | NOAA 16’, on board a Titan II SLV space rocket.

The launch took place on Sept. 21, 2000, 10:22 a.m. from Space Launch Complex 4W.

For more information about the launch, click the button.

Launch to space Titan II SLV | NOAA 16
Titan II SLV | NOAA 16

Agency: N/A

Status: Launch Successful

Launch date: Sept. 21, 2000, 10:22 a.m. UTC

Rocket: Titan II SLV

Launch pad: Space Launch Complex 4W

Location: Vandenberg SFB, CA, USA

...

Latest news about this satellite

There are no fresh news available about this satellite. Check back as we update our databases every day.


Newsletter sign-up

Weekly statistics, charts and insights to help you stay on top of the space industry.